�������l�o���
Date,Time,MP-1(��Sv/h),MP-2(��Sv/h),MP-3(��Sv/h),MP-4(��Sv/h),MP-5(��Sv/h),MP-6(��Sv/h),MP-7(��Sv/h),MP-8(��Sv/h),����,����(m/s),���J
2020/06/07,00:00,0.714,1.027,0.642,1.241,0.898,0.403,0.696,0.652,�k�k��,4.4,��
2020/06/07,00:10,0.713,1.028,0.644,1.242,0.897,0.401,0.696,0.651,�k,4.3,��
2020/06/07,00:20,0.712,1.029,0.642,1.240,0.897,0.402,0.696,0.652,�k,4.2,��
2020/06/07,00:30,0.713,1.028,0.644,1.241,0.900,0.402,0.694,0.651,�k,4.1,��
2020/06/07,00:40,0.711,1.029,0.642,1.239,0.899,0.401,0.696,0.651,�k,4.0,��
2020/06/07,00:50,0.711,1.029,0.642,1.241,0.899,0.402,0.698,0.650,�k,3.9,��
2020/06/07,01:00,0.711,1.028,0.641,1.240,0.900,0.402,0.696,0.651,�k,4.1,��
2020/06/07,01:10,0.713,1.027,0.643,1.240,0.899,0.402,0.695,0.652,�k,3.5,��
2020/06/07,01:20,0.711,1.029,0.642,1.239,0.898,0.401,0.696,0.651,�k�k��,3.8,��
2020/06/07,01:30,0.714,1.028,0.643,1.239,0.897,0.402,0.696,0.652,�k�k��,3.2,��
2020/06/07,01:40,0.712,1.028,0.643,1.239,0.898,0.402,0.696,0.651,�k,3.3,��
2020/06/07,01:50,0.710,1.025,0.643,1.238,0.899,0.402,0.695,0.652,�k,3.3,��
2020/06/07,02:00,0.712,1.030,0.643,1.241,0.898,0.401,0.697,0.651,�k,3.5,��
2020/06/07,02:10,0.709,1.028,0.644,1.239,0.898,0.402,0.696,0.651,�k,4.5,��
2020/06/07,02:20,0.711,1.027,0.642,1.240,0.898,0.400,0.694,0.652,�k,4.9,��
2020/06/07,02:30,0.711,1.029,0.643,1.240,0.899,0.401,0.697,0.652,�k,4.6,��
2020/06/07,02:40,0.710,1.027,0.643,1.239,0.898,0.403,0.698,0.650,�k�k��,4.9,��
2020/06/07,02:50,0.713,1.028,0.643,1.238,0.897,0.402,0.696,0.652,�k�k��,4.7,��
2020/06/07,03:00,0.710,1.027,0.642,1.243,0.899,0.402,0.696,0.653,�k�k��,4.6,��
2020/06/07,03:10,0.710,1.026,0.643,1.240,0.898,0.403,0.696,0.652,�k�k��,5.5,��
2020/06/07,03:20,0.712,1.026,0.641,1.240,0.899,0.402,0.694,0.650,�k�k��,5.7,��
2020/06/07,03:30,0.708,1.027,0.644,1.238,0.897,0.403,0.697,0.652,�k�k��,5.6,��
2020/06/07,03:40,0.711,1.028,0.641,1.240,0.897,0.402,0.696,0.652,�k�k��,5.1,��
2020/06/07,03:50,0.710,1.028,0.643,1.238,0.898,0.402,0.695,0.653,�k�k��,5.3,��
2020/06/07,04:00,0.712,1.027,0.644,1.239,0.898,0.402,0.695,0.652,�k�k��,5.8,��
2020/06/07,04:10,0.711,1.027,0.643,1.239,0.896,0.402,0.698,0.653,�k�k��,5.3,��
2020/06/07,04:20,0.711,1.023,0.643,1.240,0.899,0.403,0.695,0.652,�k,5.5,��
2020/06/07,04:30,0.709,1.027,0.643,1.239,0.900,0.403,0.696,0.652,�k,6.5,��
2020/06/07,04:40,0.708,1.029,0.641,1.240,0.898,0.402,0.696,0.651,�k,6.8,��
2020/06/07,04:50,0.710,1.027,0.641,1.239,0.896,0.401,0.697,0.653,�k�k��,6.9,��
2020/06/07,05:00,0.711,1.028,0.644,1.238,0.898,0.402,0.695,0.653,�k�k��,6.2,��
2020/06/07,05:10,0.712,1.028,0.642,1.240,0.897,0.403,0.696,0.652,�k,5.6,��
2020/06/07,05:20,0.711,1.026,0.642,1.239,0.895,0.402,0.694,0.653,�k,5.4,��
2020/06/07,05:30,0.712,1.026,0.644,1.239,0.896,0.402,0.696,0.652,�k�k��,5.3,��
2020/06/07,05:40,0.713,1.026,0.643,1.238,0.899,0.401,0.696,0.652,�k�k��,5.2,��
2020/06/07,05:50,0.711,1.027,0.644,1.240,0.899,0.401,0.696,0.653,�k�k��,4.6,��
2020/06/07,06:00,0.711,1.028,0.644,1.240,0.897,0.401,0.697,0.652,�k,4.0,��
2020/06/07,06:10,0.712,1.026,0.643,1.242,0.898,0.403,0.697,0.654,�k,4.0,��
2020/06/07,06:20,0.712,1.028,0.643,1.242,0.898,0.402,0.696,0.654,�k,3.5,��
2020/06/07,06:30,0.712,1.026,0.643,1.237,0.898,0.401,0.696,0.651,�k,3.3,��
2020/06/07,06:40,0.711,1.025,0.642,1.239,0.898,0.403,0.695,0.654,�k,3.2,��
2020/06/07,06:50,0.710,1.029,0.644,1.242,0.899,0.401,0.696,0.652,�k�k��,2.8,��
2020/06/07,07:00,0.712,1.027,0.644,1.237,0.899,0.402,0.694,0.653,�k,2.3,��
2020/06/07,07:10,0.713,1.029,0.644,1.240,0.898,0.402,0.696,0.653,�k�k��,3.7,��
2020/06/07,07:20,0.715,1.027,0.645,1.240,0.898,0.400,0.695,0.652,�k,4.7,��
2020/06/07,07:30,0.711,1.026,0.645,1.240,0.898,0.401,0.694,0.651,�k,4.6,��
2020/06/07,07:40,0.710,1.026,0.643,1.238,0.898,0.402,0.694,0.651,�k�k��,4.5,��
2020/06/07,07:50,0.712,1.022,0.644,1.239,0.897,0.401,0.693,0.650,�k,4.4,��
2020/06/07,08:00,0.713,1.023,0.642,1.241,0.896,0.400,0.696,0.650,�k�k��,3.8,��
2020/06/07,08:10,0.713,1.027,0.642,1.243,0.897,0.401,0.695,0.649,�k,4.1,��
2020/06/07,08:20,0.713,1.025,0.642,1.240,0.897,0.399,0.696,0.650,�k�k��,4.2,��
2020/06/07,08:30,0.713,1.025,0.642,1.241,0.897,0.401,0.697,0.648,�k�k��,4.2,��
2020/06/07,08:40,0.712,1.025,0.643,1.240,0.898,0.402,0.695,0.649,�k�k��,4.8,��
2020/06/07,08:50,0.712,1.025,0.642,1.240,0.899,0.400,0.697,0.650,�k�k��,5.8,��
2020/06/07,09:00,0.710,1.025,0.644,1.240,0.898,0.400,0.696,0.649,�k�k��,5.8,��
2020/06/07,09:10,0.709,1.029,0.642,1.239,0.896,0.401,0.695,0.650,�k�k��,6.9,��
2020/06/07,09:20,0.710,1.027,0.643,1.243,0.896,0.401,0.695,0.650,�k�k��,7.4,��
2020/06/07,09:30,0.712,1.026,0.642,1.242,0.895,0.402,0.695,0.649,�k�k��,8.4,��
2020/06/07,09:40,0.711,1.028,0.641,1.244,0.898,0.399,0.695,0.649,�k�k��,7.9,��
2020/06/07,09:50,0.711,1.026,0.641,1.242,0.898,0.401,0.695,0.649,�k�k��,8.1,��
2020/06/07,10:00,0.711,1.025,0.641,1.242,0.897,0.401,0.694,0.650,�k�k��,7.5,��
2020/06/07,10:10,0.714,1.027,0.642,1.241,0.898,0.401,0.694,0.650,�k�k��,8.0,��
2020/06/07,10:20,0.713,1.027,0.642,1.243,0.896,0.400,0.695,0.649,�k�k��,7.3,��
2020/06/07,10:30,0.711,1.026,0.643,1.241,0.898,0.401,0.695,0.650,�k�k��,6.7,��
2020/06/07,10:40,0.713,1.026,0.642,1.241,0.898,0.400,0.695,0.651,�k��,5.7,��
2020/06/07,10:50,0.714,1.029,0.642,1.245,0.899,0.400,0.696,0.652,�k��,6.1,��
2020/06/07,11:00,0.712,1.027,0.641,1.243,0.900,0.400,0.695,0.651,�k�k��,4.8,��
2020/06/07,11:10,0.712,1.030,0.642,1.243,0.900,0.402,0.696,0.650,�k�k��,4.7,��
2020/06/07,11:20,0.712,1.028,0.644,1.241,0.899,0.401,0.696,0.651,�k�k��,4.7,��
2020/06/07,11:30,0.714,1.029,0.642,1.241,0.902,0.402,0.698,0.652,�k��,4.9,��
2020/06/07,11:40,0.713,1.029,0.642,1.241,0.900,0.403,0.696,0.651,�k��,4.6,��
2020/06/07,11:50,0.713,1.028,0.644,1.240,0.900,0.402,0.696,0.650,�k��,4.4,��
2020/06/07,12:00,0.714,1.028,0.642,1.239,0.900,0.401,0.694,0.649,�k��,4.6,��
2020/06/07,12:10,0.713,1.029,0.645,1.240,0.901,0.402,0.697,0.652,���k��,4.7,��
2020/06/07,12:20,0.716,1.028,0.644,1.240,0.899,0.401,0.696,0.649,�k��,5.4,��
2020/06/07,12:30,0.713,1.029,0.643,1.241,0.899,0.402,0.694,0.650,�k��,5.3,��
2020/06/07,12:40,0.712,1.028,0.644,1.241,0.901,0.402,0.698,0.651,�k��,4.2,��
2020/06/07,12:50,0.714,1.029,0.641,1.240,0.901,0.402,0.697,0.652,�k��,4.1,��
2020/06/07,13:00,0.711,1.030,0.643,1.240,0.900,0.401,0.696,0.650,���k��,3.9,��
2020/06/07,13:10,0.711,1.029,0.642,1.242,0.901,0.401,0.695,0.650,��,2.6,��
2020/06/07,13:20,0.713,1.027,0.644,1.242,0.900,0.399,0.696,0.651,���k��,2.0,��
2020/06/07,13:30,0.713,1.030,0.642,1.244,0.900,0.402,0.694,0.650,��,2.5,��
2020/06/07,13:40,0.714,1.028,0.642,1.239,0.902,0.401,0.696,0.651,���k��,2.5,��
2020/06/07,13:50,0.713,1.031,0.642,1.242,0.902,0.401,0.696,0.651,�k��,3.4,��
2020/06/07,14:00,0.711,1.031,0.642,1.241,0.901,0.401,0.698,0.651,���k��,3.6,��
2020/06/07,14:10,0.713,1.031,0.644,1.243,0.903,0.401,0.696,0.651,�k��,3.0,��
2020/06/07,14:20,0.713,1.029,0.643,1.242,0.901,0.401,0.696,0.650,���k��,3.2,��
2020/06/07,14:30,0.714,1.032,0.642,1.243,0.902,0.402,0.695,0.651,���k��,3.3,��
2020/06/07,14:40,0.714,1.030,0.643,1.243,0.902,0.401,0.698,0.650,���k��,4.0,��
2020/06/07,14:50,0.712,1.029,0.642,1.243,0.902,0.401,0.696,0.650,���k��,3.7,��
2020/06/07,15:00,0.713,1.030,0.643,1.241,0.901,0.402,0.698,0.651,���k��,2.8,��
2020/06/07,15:10,0.713,1.031,0.645,1.242,0.902,0.402,0.696,0.650,��,2.9,��
2020/06/07,15:20,0.713,1.029,0.643,1.243,0.899,0.400,0.695,0.651,���k��,3.1,��
2020/06/07,15:30,0.713,1.030,0.645,1.242,0.903,0.403,0.697,0.651,��,2.6,��
2020/06/07,15:40,0.714,1.029,0.645,1.242,0.901,0.401,0.697,0.651,���k��,3.3,��
2020/06/07,15:50,0.714,1.029,0.646,1.244,0.902,0.401,0.696,0.651,���k��,3.0,��
2020/06/07,16:00,0.713,1.030,0.643,1.245,0.900,0.401,0.696,0.652,���k��,2.6,��
2020/06/07,16:10,0.712,1.029,0.642,1.245,0.901,0.400,0.697,0.651,��,2.3,��
2020/06/07,16:20,0.712,1.031,0.643,1.246,0.900,0.402,0.696,0.651,���k��,2.8,��
2020/06/07,16:30,0.714,1.031,0.641,1.245,0.901,0.402,0.697,0.651,���k��,2.6,��
2020/06/07,16:40,0.713,1.032,0.643,1.245,0.900,0.401,0.695,0.650,���k��,2.6,��
2020/06/07,16:50,0.712,1.029,0.644,1.245,0.899,0.402,0.696,0.650,���k��,2.6,��
2020/06/07,17:00,0.714,1.028,0.643,1.244,0.899,0.402,0.695,0.651,��,2.3,��
2020/06/07,17:10,0.715,1.029,0.641,1.245,0.902,0.402,0.696,0.651,��,2.3,��
2020/06/07,17:20,0.714,1.030,0.643,1.246,0.903,0.401,0.695,0.651,���k��,2.0,��
2020/06/07,17:30,0.714,1.029,0.643,1.244,0.900,0.402,0.696,0.652,���k��,2.3,��
2020/06/07,17:40,0.713,1.032,0.642,1.245,0.901,0.403,0.696,0.650,���k��,3.0,��
2020/06/07,17:50,0.711,1.031,0.643,1.242,0.901,0.403,0.694,0.651,�k��,2.9,��
2020/06/07,18:00,0.712,1.031,0.644,1.246,0.899,0.403,0.697,0.654,�k��,3.2,��
2020/06/07,18:10,0.711,1.033,0.643,1.245,0.899,0.403,0.695,0.652,�k��,3.1,��
2020/06/07,18:20,0.711,1.032,0.643,1.249,0.902,0.404,0.695,0.652,�k��,2.6,��
2020/06/07,18:30,0.711,1.031,0.644,1.245,0.902,0.403,0.696,0.651,�k��,2.6,��
2020/06/07,18:40,0.713,1.033,0.644,1.246,0.900,0.402,0.695,0.653,�k��,2.8,��
2020/06/07,18:50,0.713,1.030,0.646,1.247,0.902,0.403,0.697,0.653,�k��,3.6,��
2020/06/07,19:00,0.714,1.032,0.646,1.248,0.902,0.403,0.695,0.653,���k��,3.0,��
2020/06/07,19:10,0.713,1.031,0.644,1.250,0.903,0.402,0.696,0.653,�k��,3.0,��
2020/06/07,19:20,0.713,1.033,0.646,1.247,0.902,0.402,0.698,0.654,�k��,3.3,��
2020/06/07,19:30,0.711,1.032,0.645,1.246,0.901,0.403,0.697,0.653,�k��,3.1,��
2020/06/07,19:40,0.713,1.032,0.643,1.246,0.903,0.401,0.696,0.652,�k��,3.0,��
2020/06/07,19:50,0.712,1.034,0.645,1.247,0.902,0.403,0.698,0.653,�k��,2.9,��
2020/06/07,20:00,0.713,1.032,0.645,1.247,0.903,0.403,0.698,0.653,�k��,3.3,��
2020/06/07,20:10,0.710,1.032,0.644,1.246,0.903,0.402,0.698,0.653,�k�k��,2.9,��
2020/06/07,20:20,0.712,1.032,0.644,1.251,0.901,0.402,0.698,0.654,�k��,2.8,��
2020/06/07,20:30,0.713,1.032,0.646,1.248,0.902,0.402,0.697,0.652,�k��,2.6,��
2020/06/07,20:40,0.714,1.031,0.643,1.250,0.901,0.403,0.699,0.653,�k�k��,2.3,��
2020/06/07,20:50,0.713,1.033,0.645,1.246,0.901,0.404,0.698,0.651,�k�k��,2.3,��
2020/06/07,21:00,0.713,1.032,0.643,1.248,0.904,0.403,0.698,0.652,�k��,2.5,��
2020/06/07,21:10,0.714,1.030,0.645,1.248,0.902,0.404,0.695,0.653,�k��,2.9,��
2020/06/07,21:20,0.714,1.032,0.644,1.244,0.903,0.402,0.698,0.652,�k��,2.3,��
2020/06/07,21:30,0.714,1.031,0.645,1.247,0.904,0.403,0.696,0.652,�k��,2.6,��
2020/06/07,21:40,0.714,1.031,0.645,1.248,0.902,0.403,0.696,0.653,�k��,2.2,��
2020/06/07,21:50,0.713,1.031,0.646,1.246,0.900,0.402,0.698,0.652,�k�k��,2.0,��
2020/06/07,22:00,0.713,1.031,0.644,1.246,0.903,0.402,0.699,0.653,�k��,1.7,��
2020/06/07,22:10,0.714,1.031,0.645,1.246,0.903,0.401,0.698,0.651,�k�k��,2.3,��
2020/06/07,22:20,0.715,1.031,0.646,1.245,0.902,0.401,0.697,0.652,�k��,2.0,��
2020/06/07,22:30,0.712,1.032,0.646,1.247,0.903,0.402,0.697,0.654,�k�k��,1.7,��
2020/06/07,22:40,0.713,1.034,0.644,1.247,0.901,0.403,0.696,0.653,�k�k��,2.5,��
2020/06/07,22:50,0.714,1.033,0.645,1.245,0.901,0.403,0.698,0.651,�k�k��,1.9,��
2020/06/07,23:00,0.714,1.032,0.645,1.245,0.900,0.402,0.697,0.654,�k�k��,1.9,��
2020/06/07,23:10,0.714,1.030,0.644,1.245,0.903,0.399,0.696,0.652,�k�k��,2.2,��
2020/06/07,23:20,0.714,1.032,0.644,1.245,0.901,0.401,0.697,0.653,�k�k��,2.2,��
2020/06/07,23:30,0.713,1.033,0.644,1.246,0.910,0.401,0.697,0.653,�k�k��,2.6,��
2020/06/07,23:40,0.712,1.031,0.646,1.248,0.902,0.402,0.696,0.653,�k�k��,2.0,��
2020/06/07,23:50,0.712,1.032,0.645,1.246,0.902,0.402,0.699,0.653,���k��,1.7,��
